Newburgh, NY

2:47 AM EST on February 21, 2018 (GMT -0500)
Stewart International

Weather History for KSWF - February, 2014

Change the Weather History Date:

Wednesday, February 26, 2014

  Actual Average Record
Temperature  
Mean Temperature 15 °F -  
Max Temperature 24 °F 39 °F 39 °F (2017)
Min Temperature 6 °F 23 °F 6 °F (2014)
Degree Days  
Heating Degree Days 50    
Moisture  
Dew Point 5 °F    
Average Humidity 60    
Maximum Humidity 85    
Minimum Humidity 39    
Precipitation  
Precipitation 0.00 in - - ()
Sea Level Pressure  
Sea Level Pressure 29.87 in    
Wind  
Wind Speed 6 mph (NW)    
Max Wind Speed 21 mph    
Max Gust Speed 32 mph    
Visibility 13 miles    
Events Snow    
Averages and records for this station are not official NWS values.
T = Trace of Precipitation, MM = Missing Value Source: NWS Daily Summary

Daily Weather History Graph

Daily Weather History Graph

Search for Another Location

Airport or City:

Trip Planner

Search our weather history database for the weather conditions in past years. The results will help you decide how hot, cold, wet, or windy it might be!

Date:

Astronomy

Feb. 26, 2014 Rise Set
Actual Time 6:35 AM EST 5:43 PM EST
Civil Twilight 6:07 AM EST 6:11 PM EST
Nautical Twilight 5:35 AM EST 6:43 PM EST
Astronomical Twilight 5:03 AM EST 7:15 PM EST
Moon 4:21 AM EST (2/26) 2:53 PM EST (2/26)
Length of Visible Light 12h 03m
Length of Day
11h 07m
Waning Crescent, 10% of the Moon is Illuminated
Feb 26
Waning Crescent
Mar 1
New
Mar 8
First Quarter
Mar 16
Full
Mar 23
Last Quarter

Hourly Weather History & Observations

Time (EST) Temp. Windchill Dew Point Humidity Pressure Visibility Wind Dir Wind Speed Gust Speed Precip Events Conditions
12:45 AM 10.4 °F 2.2 °F 5.0 °F 79% 29.94 in 10.0 mi West 4.6 mph - N/A   Partly Cloudy
2:45 AM 6.8 °F - 3.2 °F 85% 29.90 in 10.0 mi Calm Calm - N/A   Partly Cloudy
4:45 AM 14.0 °F - 6.8 °F 73% 29.88 in 10.0 mi Calm Calm - N/A   Scattered Clouds
5:45 AM 14.0 °F - 6.8 °F 73% 29.86 in 10.0 mi Calm Calm - N/A   Mostly Cloudy
6:45 AM 14.0 °F - 8.6 °F 79% 29.86 in 15.0 mi Calm Calm - N/A   Scattered Clouds
8:45 AM 17.6 °F 9.3 °F 12.2 °F 79% 29.87 in 10.0 mi WNW 5.8 mph - N/A   Mostly Cloudy
9:45 AM 23.0 °F 10.6 °F 14.0 °F 68% 29.89 in 10.0 mi West 13.8 mph - N/A   Mostly Cloudy
10:10 AM 23.0 °F - 14.0 °F 68% 29.89 in 5.0 mi North - - N/A Snow Light Snow
10:45 AM 21.2 °F 12.6 °F 15.8 °F 80% 29.89 in 7.0 mi WNW 6.9 mph - N/A   Scattered Clouds
11:45 AM 24.8 °F 14.0 °F 12.2 °F 59% 29.86 in 15.0 mi West 11.5 mph 20.7 mph N/A   Scattered Clouds
12:45 PM 24.8 °F 10.3 °F 12.2 °F 59% 29.84 in 20.0 mi NW 20.7 mph 28.8 mph N/A   Mostly Cloudy
2:45 PM 23.0 °F 8.0 °F 6.8 °F 50% 29.83 in 20.0 mi NW 20.7 mph 32.2 mph N/A   Scattered Clouds
3:45 PM 23.0 °F 8.7 °F 3.2 °F 43% 29.84 in 20.0 mi NW 18.4 mph 29.9 mph N/A   Partly Cloudy
4:45 PM 21.2 °F 6.4 °F -0.4 °F 39% 29.84 in 20.0 mi NW 18.4 mph 29.9 mph N/A   Clear
5:45 PM 19.4 °F 7.2 °F -2.2 °F 39% 29.84 in 20.0 mi NW 11.5 mph 18.4 mph N/A   Clear
6:45 PM 17.6 °F 5.0 °F -2.2 °F 42% 29.85 in 20.0 mi NW 11.5 mph - N/A   Clear
7:45 PM 15.8 °F 7.2 °F -2.2 °F 45% 29.85 in 10.0 mi NW 5.8 mph - N/A   Clear
8:45 PM 14.0 °F 5.1 °F -2.2 °F 49% 29.86 in 10.0 mi NW 5.8 mph - N/A   Clear
9:45 PM 14.0 °F - -2.2 °F 49% 29.86 in 10.0 mi Calm Calm - N/A   Clear
10:45 PM 14.0 °F - -2.2 °F 49% 29.87 in 10.0 mi Calm Calm - N/A   Clear
11:45 PM 10.4 °F - -2.2 °F 57% 29.87 in 10.0 mi Calm Calm - N/A   Clear